EHI
0 0 0 0 0 0 0 0 0 0 0 0 0 0 0 0 0 0 0 0 0 0 0 0 0 0 0 0 0 0 0 0 0 0 0 0 0 0
0 0 0 0 0 0 0 0 0 0 0 0 0 0 0 0 0 0 0 0 0 0 0 0 0 0 0 0 0 0 0 0 0 0 0 0 0 0
0 0 0 0 0 0 0 0 0 0 0 0 0 0 0 0 0 0 0 0 0 0 0 0 0 0 0 0 0 0 0 0 0 0 0 0 0 0
0 0 0 0 0 0 0 0 0 0 0 0 0 0 0 0 0 0 0 0 0 0 0 0 0 0 0 0 0 0 0 0 0 0 0 0 0 0
0 0 0 0 0 0 0 0 0 0 0 0 0 0 0 0 0 0 0 0 0 0 0 0 0 0 0 0 0 0 0 0 0 0 0 0 0 0
0 0 0 0 0 0 0 0 0 0 0 0 0 0 0 0 0 0 0 0 0 0 0 0 0 0 0 0 0 0 0 0 0 0 0 0 0 0
0 0 0 0 0 0 0 0 0 0 0 0 0 0 0 0 0 0 0 0 0 0 0 0 0 0 0 0 0 0 0 0 0 0 0 0 0 0
0 0 0 0 0 0 0 0 0 0 0 0 0 0 0 0 0 0 0 0 0 0 0 0 0 0 0 0 0 0 0 0 0 0 0 0 0 0
0 0 0 0 0 0 0 0 0 0 0 0 0 0 0 0 0 0 0 0 0 0 0 0 0 0 0 0 0 0 0 0 0 0 0 0 0 0
0 0 0 0 0 0 0 0 0 0 0 0 0 0 0 0 0 0 0 0 0 0 0 0 0 0 0 0 0 0 0 0 0 0 0 0 0 0
0 0 0 0 0 0 0 0 0 0 0 0 0 0 0 0 0 0 0 0 0 0 0 0 0 0 0 0 0 0 0 0 0 0 0 0 0 0
0 0 0 0 0 0 0 0 0 0 0 0 0 0 0 0 0 0 0 0 0 0 0 0 0 0 0 0 0 0 0 0 0 0 0 0 0 0
0 0 0 0 0 0 0 0 0 0 0 0 0 0 0 0 0 0 0 0 0 0 0 0 0 0 0 0 0 0 0 0 0 0 0 0 0 0
0 0 0 0 0 0 0 0 0 0 0 0 0 0 0 0 0 0 0 0 0 0 0 0 0 0 0 0 0 0 0 0 0 0 0 0 0 0
0 0 0 0 0 0 0 0 0 0 0 0 0 0 0 0 0 0 0 0 0 0 0 0 0 0 0 0 0 0 0 0 0 0 0 0 0 0
0 0 0 0 0 0 0 0 0 0 0 0 0 0 0 0 0 0 0 0 0 0 0 0 0 0 0 0 0 0 0 0 0 0 0 0 0 0
0 0 0 0 0 0 0 0 0 0 0 0 0 0 0 0 0 0 0 0 0 0 0 0 0 0 0 0 0 0 0 0 0 0 0 0 0 0
0 0 0 0 0 0 0 0 0 0 0 0 0 0 0 0 0 0 0 0 0 0 0 0 0 0 0 0 0 0 0 0 0 0 0 0 0 0
0 0 0 0 0 0 0 0 0 0 0 0 0 0 0 0 0 0 0 0 0 0 0 0 0 0 0 0 0 0 0 0 0 0 0 0 0 0
0 0 0 0 0 0 0 0 0 0 0 0 0 0 0 0 0 0 0 0 0 0 0 0 0 0 0 0 0 0 0 0 0 0 0 0 0 0
0 0 0 0 0 0 0 0 0 0 0 0 0 0 0 0 0 0 0 0 0 0 0 0 0 0 0 0 0 0 0 0 0 0 0 0 0 0
0 0 0 0 0 0 0 0 0 0 0 0 0 0 0 0 0 0 0 0 0 0 0 0 0 0 0 0 0 0 0 0 0 0 0 0 0 0
0 0 0 0 0 0 0 0 0 0 0 0 0 0 0 0 0 0 0 0 0 0 0 0 0 0 0 0 0 0 0 0 0 0 0 0 0 0
Wind_Speed
2 2 2 1 1 1 1 2 2 5 5 3 2 2 3 3 5 4 4 10 13 13 13 14 14 14 14 15 15 15 15 15 16 16 17 17 17 16
1 2 2 2 1 1 2 2 3 4 5 3 3 4 5 5 8 6 5 12 12 13 14 14 14 14 14 15 15 16 16 16 16 16 17 17 17 16
2 2 2 2 2 2 2 3 3 3 6 6 4 4 5 5 6 5 5 5 6 12 14 14 14 14 15 15 15 16 16 16 16 16 17 16 16 16
2 2 3 2 3 3 3 3 4 4 5 8 5 5 6 5 5 6 6 6 5 11 13 14 14 14 15 15 15 15 15 15 15 15 16 15 15 15
3 3 3 3 3 3 3 3 3 4 4 6 6 5 4 4 5 6 6 5 6 8 11 12 13 14 14 14 14 14 14 15 15 15 15 14 15 15
3 3 3 4 4 4 4 4 4 4 4 5 5 5 4 4 4 5 6 4 6 6 8 9 12 13 14 14 14 14 14 14 14 14 13 13 14 14
4 4 4 5 7 5 4 4 4 4 4 5 5 5 5 4 4 4 6 6 6 4 4 5 6 5 6 10 12 13 14 14 14 13 13 13 13 14
3 3 4 5 6 7 9 8 7 6 5 5 5 6 6 5 5 5 5 6 6 3 4 6 4 5 5 5 11 14 14 13 12 12 13 13 13 13
3 3 3 4 5 3 6 8 8 10 10 7 7 7 7 6 6 6 6 6 7 5 5 7 4 6 5 7 14 15 13 12 12 13 12 12 12 11
4 3 4 4 4 4 4 4 4 6 7 6 6 7 6 6 5 6 7 7 6 4 3 6 5 5 6 5 11 12 11 11 12 11 11 11 11 10
3 3 4 4 6 6 4 4 5 5 7 9 9 9 10 11 9 5 4 5 6 4 2 3 4 5 5 5 6 9 10 11 11 10 10 11 10 9
2 3 5 5 6 6 4 3 5 5 5 5 5 6 6 7 9 5 4 4 5 4 2 2 3 4 5 3 3 4 5 8 11 11 11 10 10 5
2 2 3 6 7 7 6 4 6 5 4 4 4 4 4 3 3 3 3 3 4 4 3 3 3 3 4 5 4 3 4 4 5 6 8 9 9 7
3 2 3 6 6 6 5 5 6 5 3 3 3 4 3 3 3 3 4 4 4 5 5 4 4 4 5 6 5 4 3 3 4 4 4 6 7 8
3 4 5 6 5 4 5 6 5 3 2 3 4 4 3 3 3 3 3 4 4 4 4 4 4 5 4 5 5 5 5 4 3 3 3 4 3 3
2 3 5 5 4 4 4 3 2 2 3 3 3 3 3 3 3 3 3 3 4 4 4 4 4 4 4 4 4 5 4 4 3 4 4 3 3 2
2 1 1 2 2 2 2 2 2 2 3 2 2 3 3 3 3 3 3 3 3 4 4 3 3 3 3 3 4 4 4 4 4 4 4 4 3 3
1 1 1 2 2 2 2 2 2 2 2 2 2 3 3 3 3 3 3 3 4 4 4 4 4 4 3 2 3 4 3 3 4 4 3 3 4 3
1 1 2 2 2 2 2 2 3 2 2 3 3 3 3 3 3 3 3 3 4 4 4 4 3 3 4 5 3 2 3 4 4 3 3 3 4 4
1 2 2 2 2 2 2 2 2 2 2 2 3 3 3 3 3 3 3 4 4 4 4 3 3 3 3 4 4 4 4 3 3 4 3 3 3 5
1 2 2 2 2 2 2 2 2 2 3 2 3 3 3 3 3 3 3 5 4 4 4 4 4 6 3 2 2 3 4 5 5 3 3 3 3 3
2 2 2 2 2 2 2 2 2 2 3 2 3 3 3 3 3 3 3 3 3 3 4 4 4 3 2 2 3 4 5 5 6 7 5 3 2 2
2 2 2 2 2 1 1 2 3 2 2 2 2 3 3 3 3 3 3 3 3 4 4 3 3 2 2 2 2 3 4 5 4 4 4 6 5 5
Wind_Direction
241 243 249 256 262 270 271 262 271 290 291 283 296 306 312 304 301 299 293 304 308 309 308 309 308 309 309 308 308 306 306 305 303 303 303 302 301 302
245 245 260 261 262 268 267 267 258 264 276 284 291 298 304 305 303 302 294 305 303 305 306 305 304 306 308 308 306 306 305 303 302 302 302 303 301 302
267 257 264 270 264 262 259 259 261 264 274 285 287 297 296 297 300 298 294 288 290 300 303 303 304 305 306 307 306 305 304 303 303 303 304 302 304 302
251 257 265 272 265 258 255 259 264 263 269 285 294 295 291 292 295 297 302 300 292 297 302 304 305 306 306 306 305 304 303 302 302 303 303 303 304 304
245 248 255 258 266 265 263 267 269 275 275 281 290 290 290 295 299 300 296 293 297 298 302 301 303 306 306 305 305 305 305 304 301 301 301 303 304 303
249 251 254 252 258 264 263 260 267 273 277 279 285 290 291 292 291 295 301 299 298 300 296 298 301 305 305 305 305 306 306 305 304 303 301 302 303 303
249 249 251 255 261 267 272 269 270 273 277 280 284 290 290 295 290 291 296 301 295 285 292 294 297 292 295 300 303 305 305 303 304 305 305 304 304 302
260 264 260 257 263 277 281 282 278 276 279 278 281 283 284 289 292 296 299 304 298 289 301 296 293 291 292 288 301 306 306 304 305 307 305 304 305 303
263 266 273 274 278 267 283 288 282 277 274 273 275 278 281 286 291 292 289 289 285 290 300 292 294 290 291 298 305 306 307 309 310 309 308 308 306 302
264 268 269 271 272 273 279 284 285 286 281 276 268 275 281 283 275 279 284 292 289 286 283 285 293 292 296 294 302 304 313 317 316 316 320 320 319 317
267 275 278 271 276 289 287 285 288 289 292 287 285 289 295 297 296 294 295 298 298 297 287 280 294 304 296 288 298 313 322 323 322 321 324 325 323 322
275 274 278 283 281 291 283 277 284 289 297 302 301 301 299 297 301 291 283 287 295 295 294 307 300 318 309 292 300 317 319 320 325 326 327 328 329 328
280 285 285 292 290 292 295 280 284 298 298 299 299 300 299 293 292 290 279 271 278 278 286 305 297 299 285 296 301 303 307 313 318 318 322 327 330 329
273 282 293 302 306 308 306 303 309 312 300 301 300 299 301 302 303 298 292 285 271 272 277 279 278 286 292 294 296 303 310 309 312 314 318 326 327 326
278 291 303 311 315 317 319 322 321 310 302 298 297 298 298 296 302 306 304 301 296 286 283 275 272 278 278 282 289 298 307 310 311 320 323 323 323 324
292 294 305 312 318 315 316 314 311 304 301 293 299 301 305 310 311 311 309 314 313 310 301 293 286 282 282 284 286 294 298 296 310 315 313 316 320 319
313 308 308 312 314 312 311 302 298 302 305 303 304 312 316 317 316 318 310 311 308 311 320 324 313 298 283 281 288 291 294 298 301 308 314 316 313 308
336 292 299 303 306 310 309 307 300 300 301 303 304 305 309 311 313 314 312 311 312 312 315 318 323 324 317 303 271 281 294 298 306 311 308 310 310 312
323 291 288 291 297 303 303 302 302 303 304 302 301 303 305 308 311 314 317 316 315 314 313 315 322 325 324 321 315 306 306 310 313 314 308 297 295 301
283 281 286 289 295 301 304 306 309 309 309 310 311 309 307 309 309 310 310 313 315 316 316 320 319 314 304 300 303 309 317 308 308 309 309 303 289 297
275 279 284 291 294 295 299 303 306 309 314 315 310 311 310 308 306 303 303 312 317 317 318 317 309 317 305 304 312 317 322 328 320 306 309 314 317 322
267 273 279 285 291 291 299 300 298 303 308 307 309 309 310 306 305 306 310 313 314 312 311 313 318 327 335 335 325 321 325 332 338 339 332 313 302 310
264 267 272 278 282 284 288 297 301 300 301 302 306 308 309 307 304 304 307 311 314 317 321 325 331 334 334 330 327 326 332 337 341 346 346 346 339 319